Location: Auckland
(36.8670°S, 174.7670°E)
Time: 22:31:45
(UTC+12:00)

A-11 Canister half - Pass Details

Date: 22 July 2019
Orbit: 1526 x 1683 km, 47.3° (Epoch: 21 August)

Event Time Altitude Azimuth Distance (km) Brightness Sun altitude
Rises 09:02:10 0° 297° (WNW) 4,681 11.3 15.1°
Reaches altitude 10° 09:05:11 10° 295° (WNW) 3,711 10.8 15.5°
Maximum altitude 09:14:35 75° 209° (SSW) 1,620 9.3 16.9°
Drops below altitude 10° 09:24:20 10° 123° (ESE) 3,834 11.3 18.3°
Sets 09:27:31 0° 121° (ESE) 4,843 11.8 18.8°
